Location: Arlington
(31.4185°N, 90.5568°W)
Time: 22:07:40
(UTC+00:00)

ISS - Visible Passes

Search period start: 28 September 2021 00:00
Search period end: 08 October 2021 00:00
Orbit: 417 x 423 km, 51.6° (Epoch: 28 September)

Date Brightness Start Highest point End Pass type
(mag) Time Alt. Az. Time Alt. Az. Time Alt. Az.
03 Oct -1.1 01:24:30 10° N 01:25:07 13° N 01:25:07 13° N visible
04 Oct -1.4 00:38:15 10° NNE 00:39:13 11° NNE 00:39:48 11° NE visible
05 Oct -2.1 01:25:45 10° NW 01:27:34 28° NNW 01:27:34 28° NNW visible
06 Oct -2.6 00:38:39 10° NNW 00:41:35 28° NE 00:42:29 24° ENE visible
07 Oct -2.3 01:27:50 10° WNW 01:30:33 35° WSW 01:30:33 35° WSW visible
